This is the latest recevied weather packets stored in our database for station/object DB0WUN-13. If no packets are shown the sender has not sent any weather packets the latest 1 day(s).
| Time | Temp. | Humidity | Pressure | Rain* | Wind** | Luminosity | Snow |
|---|---|---|---|---|---|---|---|
| 1778053755 | 12.78° C | 83% | 1007.6 hPa | 0 mm | 2.24 m/s, 215° | 206 W/m² | - |
| 1778053693 | 12.78° C | 82% | 1007.7 hPa | 0 mm | 2.24 m/s, 196° | 229 W/m² | - |
| 1778053637 | 12.78° C | 82% | 1007.6 hPa | 0 mm | 2.24 m/s, 281° | 239 W/m² | - |
| 1778053572 | 12.22° C | 82% | 1007.6 hPa | 0 mm | 2.24 m/s, 230° | 225 W/m² | - |
| 1778053514 | 12.22° C | 82% | 1007.6 hPa | 0 mm | 2.24 m/s, 204° | 260 W/m² | - |
| 1778053448 | 12.78° C | 82% | 1007.6 hPa | 0 mm | 2.24 m/s, 203° | 218 W/m² | - |
| 1778053386 | 12.78° C | 82% | 1007.6 hPa | 0 mm | 2.24 m/s, 170° | 221 W/m² | - |
| 1778053332 | 12.78° C | 81% | 1007.5 hPa | 0 mm | 2.24 m/s, 218° | 225 W/m² | - |
| 1778053264 | 12.78° C | 81% | 1007.4 hPa | 0 mm | 2.24 m/s, 216° | 192 W/m² | - |
| 1778053213 | 12.78° C | 81% | 1007.5 hPa | 0 mm | 2.24 m/s, 203° | 165 W/m² | - |
| 1778053143 | 12.78° C | 81% | 1007.6 hPa | 0 mm | 1.79 m/s, 209° | 156 W/m² | - |
| 1778053083 | 12.78° C | 81% | 1007.6 hPa | 0 mm | 1.79 m/s, 215° | 169 W/m² | - |
| 1778053030 | 12.78° C | 81% | 1007.6 hPa | 0 mm | 1.34 m/s, 167° | 179 W/m² | - |
| 1778052966 | 12.78° C | 82% | 1007.6 hPa | 0 mm | 1.34 m/s, 204° | 320 W/m² | - |
| 1778052900 | 12.78° C | 82% | 1007.4 hPa | 0 mm | 1.34 m/s, 186° | 417 W/m² | - |
| 1778052838 | 12.78° C | 82% | 1007.4 hPa | 0 mm | 1.34 m/s, 216° | 622 W/m² | - |
| 1778052778 | 12.78° C | 81% | 1007.4 hPa | 0 mm | 1.34 m/s, 215° | 622 W/m² | - |
| 1778052718 | 12.78° C | 82% | 1007.5 hPa | 0 mm | 1.34 m/s, 229° | 322 W/m² | - |
| 1778052662 | 12.78° C | 83% | 1007.4 hPa | 0 mm | 1.34 m/s, 217° | 322 W/m² | - |
| 1778052596 | 12.78° C | 83% | 1007.4 hPa | 0 mm | 1.34 m/s, 274° | 322 W/m² | - |
| 1778052537 | 12.78° C | 83% | 1007.4 hPa | 0 mm | 1.34 m/s, 215° | 322 W/m² | - |
| 1778052475 | 12.78° C | 83% | 1007.4 hPa | 0 mm | 1.34 m/s, 215° | 262 W/m² | - |
| 1778052414 | 12.78° C | 84% | 1007.4 hPa | 0 mm | 1.34 m/s, 160° | 262 W/m² | - |
| 1778052357 | 12.78° C | 84% | 1007.4 hPa | 0 mm | 1.34 m/s, 215° | 262 W/m² | - |
| 1778052295 | 12.22° C | 83% | 1007.3 hPa | 0 mm | 1.34 m/s, 217° | 253 W/m² | - |
* Rain latest hour (hover to see other rain measurements)
** Current wind speed in m/s (hover to see current wind gust speed)